SCP
0 0 0 0 0 0 0 0 0 0 0 0 0 0 0 0 0 0 0 0 0 0 0 0 0 0 0 0 0 0 0 0 0 0 0 0 0 0 0 0 0 0 0
0 0 0 0 0 0 0 0 0 0 0 0 0 0 0 0 0 0 0 0 0 0 0 0 0 0 0 0 0 0 0 0 0 0 0 0 0 0 0 0 0 0 0
0 0 0 0 0 0 0 0 0 0 0 0 0 0 0 0 0 0 0 0 0 0 0 0 0 0 0 0 0 0 0 0 0 0 0 0 0 0 0 0 0 0 0
0 0 0 0 0 0 0 0 0 0 0 0 0 0 0 0 0 0 0 0 0 0 0 0 0 0 0 0 0 0 0 0 0 0 0 0 0 0 0 0 0 0 0
0 0 0 0 0 0 0 0 0 0 0 0 0 -0 0 0 0 0 0 0 0 0 0 0 0 0 0 0 0 0 0 0 0 0 0 0 0 0 0 0 0 0 0
0 0 0 0 0 0 0 0 0 0 0 0 0 0 0 0 0 0 0 0 0 0 0 0 0 0 0 0 0 0 0 0 0 0 0 0 0 0 0 0 0 0 0
0 0 0 0 0 0 0 0 0 0 0 0 0 0 0 0 0 0 0 0 0 0 0 0 0 0 0 0 0 0 0 0 0 0 0 0 0 0 0 0 0 0 0
0 0 0 0 0 0 0 0 0 0 0 0 0 0 0 0 0 0 0 0 0 0 0 0 0 0 0 0 0 0 0 0 0 0 0 0 0 0 0 0 0 0 0
0 0 0 0 0 0 0 0 0 0 0 0 0 0 0 0 0 0 0 0 0 0 0 0 0 0 0 0 0 0 0 0 0 0 0 0 0 0 0 0 0 0 0
0 0 0 0 0 0 0 0 0 0 0 0 0 0 0 0 0 0 0 0 0 0 0 0 0 0 0 0 0 0 0 0 0 0 0 0 0 0 0 0 0 0 0
0 0 0 0 0 0 0 0 0 0 0 0 0 0 0 0 0 0 0 0 0 0 0 0 0 0 0 0 0 0 0 0 0 0 0 0 0 0 0 0 0 0 0
0 0 0 0 0 0 0 0 0 0 0 0 0 0 0 0 0 0 0 0 0 0 0 0 0 0 0 0 0 0 0 0 0 0 0 0 0 0 0 0 0 0 0
0 0 0 0 0 0 0 0 0 0 0 0 0 0 0 0 0 0 0 0 0 0 0 0 0 0 0 0 0 0 0 0 0 0 0 0 0 0 0 0 0 0 0
0 0 0 0 0 0 0 0 0 0 0 0 0 0 0 0 0 0 0 0 0 0 0 0 0 0 0 0 0 0 0 0 0 0 0 0 0 0 0 0 0 0 0
0 0 0 0 0 0 0 0 0 0 0 0 0 0 0 0 0 0 0 0 0 0 0 0 0 0 0 0 0 0 0 0 0 0 0 0 0 0 0 0 0 0 0
0 0 0 0 0 0 0 0 0 0 0 0 0 0 0 0 0 0 0 0 0 0 0 0 0 0 0 0 0 0 0 0 0 0 0 0 0 0 0 0 0 0 0
0 0 0 0 0 0 0 0 0 0 0 0 0 0 0 0 0 0 0 0 0 0 0 0 0 0 0 0 0 0 0 0 0 0 0 0 0 0 0 0 0 0 0
0 0 0 0 0 0 0 0 0 0 0 0 0 0 0 0 0 0 0 0 0 0 0 0 0 0 0 0 0 0 0 0 0 0 0 0 0 0 0 0 0 0 0
0 0 0 0 0 0 0 0 0 0 0 0 0 0 0 0 0 0 0 0 0 0 0 0 0 0 0 0 0 0 0 0 0 0 0 0 0 0 0 0 0 0 0
0 0 0 0 0 0 0 0 0 0 0 0 0 0 0 0 0 0 0 0 0 0 0 0 0 0 0 0 0 0 0 0 0 0 0 0 0 0 0 0 0 0 0
0 0 0 0 0 0 0 0 0 0 0 0 0 0 0 0 0 0 0 0 0 0 0 0 0 0 0 0 0 0 0 0 0 0 0 0 0 0 0 0 0 0 0
0 0 0 0 0 0 0 0 0 0 0 0 0 0 0 0 0 0 0 0 0 0 0 0 0 0 0 0 0 0 0 0 0 0 0 0 0 0 0 0 0 0 0
0 0 0 0 0 0 0 0 0 0 0 0 0 0 0 0 0 0 0 0 0 0 0 0 0 0 0 0 0 0 0 0 0 0 0 0 0 0 0 0 0 0 0
0 0 0 0 0 0 0 0 0 0 0 0 0 0 0 0 0 0 0 0 0 0 0 0 0 0 0 0 0 0 0 0 0 0 0 0 0 0 0 0 0 0 0
0 0 0 0 0 0 0 0 0 0 0 0 0 0 0 0 0 0 0 0 0 0 0 0 0 0 0 0 0 0 0 0 0 0 0 0 0 0 0 0 0 0 0
0 0 0 0 0 0 0 0 0 0 0 0 0 0 0 0 0 0 0 0 0 0 0 0 0 0 0 0 0 0 0 0 0 0 0 0 0 0 0 0 0 0 0
Wind_Speed
4 3 2 2 3 3 3 3 4 6 6 5 4 5 5 6 6 5 5 15 15 13 11 11 11 10 10 11 11 10 9 7 6 5 5 5 4 3 2 1 1 3 3
4 4 3 3 2 3 3 3 4 5 4 4 4 5 5 5 6 6 6 10 19 18 16 14 13 12 12 12 12 12 10 8 7 5 4 4 4 3 1 1 1 2 3
5 4 3 3 3 3 4 4 4 4 5 4 4 4 4 5 5 6 6 5 7 15 19 19 18 16 14 13 12 12 11 10 8 6 4 2 1 1 1 1 2 3 4
6 5 4 4 4 3 4 4 3 4 4 4 3 2 2 3 5 5 5 5 5 6 11 17 19 19 19 17 14 12 12 12 10 8 7 5 3 1 1 1 2 3 5
7 5 5 4 5 4 3 4 3 3 4 4 4 3 2 2 3 5 5 6 6 6 5 10 16 18 18 19 18 16 15 14 13 10 8 6 4 1 1 1 1 2 4
7 6 5 5 6 5 4 4 4 3 3 4 5 5 3 3 3 3 3 4 5 6 6 7 7 9 16 17 18 19 17 16 13 11 9 7 5 2 1 1 1 2 3
7 7 5 6 6 6 7 7 4 4 3 3 4 3 3 4 5 3 2 3 5 5 6 6 5 5 5 13 17 18 18 18 15 11 11 10 8 5 2 2 2 2 2
7 8 7 7 7 6 7 7 6 4 3 3 4 4 2 2 4 4 3 3 4 4 5 6 6 6 5 5 10 17 18 18 18 15 12 11 10 8 5 2 2 3 1
7 7 8 8 7 7 8 9 8 7 5 3 2 5 4 4 1 2 3 3 3 3 3 4 6 6 6 5 5 10 15 16 17 17 13 11 10 9 7 5 3 4 3
6 5 6 7 8 7 8 10 8 5 8 5 2 1 2 4 4 2 2 2 2 3 3 3 4 4 5 4 6 10 13 14 16 17 16 16 15 15 10 5 3 3 4
5 5 4 5 6 5 7 8 6 5 5 5 4 3 3 2 3 4 2 1 1 1 1 2 2 2 3 3 3 7 11 13 15 17 18 19 19 19 17 10 5 4 3
5 7 6 4 3 4 6 6 6 6 5 5 4 4 4 4 4 4 4 2 2 1 1 1 0 1 1 2 4 9 10 11 13 15 16 17 19 20 19 17 13 9 7
5 7 6 4 3 3 4 5 5 5 5 5 6 4 3 3 4 4 4 3 2 1 1 1 1 1 0 2 2 7 10 11 12 13 14 16 17 18 19 20 18 17 14
5 8 7 5 3 4 5 5 4 4 5 5 6 6 4 3 3 4 5 5 3 2 2 3 2 2 1 1 3 5 5 10 10 11 12 13 15 16 17 18 18 18 17
6 8 8 6 3 4 5 6 5 5 5 5 5 6 5 4 4 4 4 5 6 5 6 5 3 3 2 2 2 2 3 7 8 10 10 11 12 14 15 16 16 15 14
5 7 7 6 5 5 5 4 3 4 5 5 4 5 6 4 5 5 5 4 4 6 4 3 3 3 4 4 5 3 3 7 7 8 10 10 10 12 13 15 14 13 13
5 7 7 7 7 6 5 4 3 3 4 4 4 5 6 5 5 5 5 5 4 4 4 3 2 2 4 4 3 2 3 3 3 7 9 10 10 11 12 13 13 12 13
6 6 6 6 5 5 5 5 5 6 5 6 6 6 7 6 7 5 5 7 6 5 5 5 3 3 3 4 4 3 2 2 3 5 7 8 9 9 11 11 11 12 13
3 3 5 5 5 5 5 6 7 7 7 7 7 8 8 8 9 7 7 7 6 5 4 5 4 2 2 3 3 2 2 2 1 4 6 7 7 8 8 8 9 11 12
4 4 4 4 4 5 6 6 6 7 7 7 7 8 8 10 10 9 8 8 7 6 5 5 5 3 3 3 3 3 2 1 1 2 4 5 6 8 8 6 8 10 11
7 6 5 4 4 4 5 6 6 7 8 8 8 8 9 12 13 10 8 8 9 8 6 5 4 4 5 5 6 4 4 2 1 1 1 1 2 3 4 5 5 8 9
6 6 6 5 4 3 4 5 6 6 7 8 8 7 7 9 13 16 16 15 15 13 11 8 5 6 8 7 5 5 5 4 3 3 3 1 1 0 1 1 2 5 7
7 6 5 4 4 4 6 6 5 4 6 6 6 4 4 5 8 7 11 15 16 19 19 12 10 9 10 11 11 8 6 4 4 4 4 2 1 1 2 2 5 2 5
5 5 4 4 3 4 5 5 6 3 4 5 5 5 4 3 3 6 5 7 9 12 15 13 12 10 8 10 11 10 8 6 4 2 4 4 3 2 2 2 5 5 5
4 3 3 4 3 3 4 4 2 2 3 3 3 4 4 3 4 5 5 6 7 7 9 9 6 7 12 16 14 9 8 5 3 4 4 4 4 2 1 2 4 7 7
5 5 3 3 3 3 4 3 4 2 2 1 2 3 7 7 6 5 3 4 5 5 4 5 5 8 9 15 20 13 11 8 4 5 6 6 4 4 2 2 2 2 4
Wind_Direction
150 145 141 128 106 100 94 87 103 109 104 92 80 72 54 40 31 31 37 60 65 65 67 72 76 76 74 73 74 76 75 77 89 123 150 166 167 145 105 51 16 31 30
156 157 153 141 126 122 109 104 123 118 112 107 94 78 67 52 37 39 39 48 57 59 62 68 72 74 73 72 71 69 67 66 71 92 129 166 184 178 157 31 48 52 42
168 166 163 152 147 138 121 107 108 107 112 109 95 83 77 63 48 41 43 43 45 50 53 56 60 63 64 65 68 68 65 62 60 61 70 95 174 197 232 11 61 65 47
176 167 175 163 151 145 136 131 134 115 115 114 103 80 83 84 65 51 46 43 43 43 44 49 50 50 50 50 54 62 62 59 55 50 46 43 38 350 278 91 71 55 41
179 171 185 163 156 160 155 151 138 131 128 121 108 74 52 82 82 72 57 52 48 43 37 41 47 45 42 40 41 46 51 50 44 40 38 34 33 16 206 129 72 31 18
180 177 186 166 163 167 164 155 138 117 120 126 105 79 52 60 73 74 75 72 61 57 49 44 38 35 40 39 37 37 39 37 32 31 35 34 29 12 226 191 339 348 349
183 182 183 167 170 177 173 154 134 129 121 126 99 79 48 55 60 48 52 78 75 69 60 50 47 38 30 36 34 35 31 23 19 27 34 31 25 11 325 229 243 292 333
188 191 181 177 175 171 161 160 145 136 139 156 129 114 83 28 33 36 38 55 59 53 60 56 46 38 31 29 29 33 29 20 20 26 30 28 27 22 2 304 244 254 287
191 186 180 175 174 173 176 174 165 154 154 170 147 142 148 178 105 31 38 43 47 44 44 48 46 34 29 24 20 27 30 24 21 22 27 34 35 28 10 348 297 264 260
195 185 177 176 178 181 179 182 172 164 151 155 130 96 128 146 139 112 17 26 58 56 41 48 44 35 28 18 28 37 34 29 27 25 35 44 42 34 25 8 338 297 265
160 150 153 171 184 183 174 176 165 159 150 154 152 143 112 83 110 131 157 220 353 47 58 50 42 33 30 19 15 45 41 34 36 34 37 38 36 30 28 35 38 18 349
138 129 122 139 168 173 173 176 163 160 156 156 156 159 160 156 163 146 147 165 203 222 143 121 58 359 26 18 41 61 54 42 44 43 40 38 36 30 30 40 47 47 33
150 134 121 119 138 164 169 166 167 176 171 171 176 181 174 165 151 139 132 140 157 206 185 200 196 224 58 36 32 61 60 50 45 46 44 42 39 33 33 37 42 46 46
146 140 131 133 155 173 176 170 169 183 185 191 189 185 180 185 166 155 148 141 140 181 220 222 184 194 170 108 77 58 52 58 45 44 48 47 42 36 35 36 38 39 39
149 147 146 154 172 187 185 172 171 176 179 193 200 198 198 193 184 179 163 160 158 179 215 203 190 185 174 140 111 71 57 70 57 43 47 54 48 39 35 34 34 33 32
156 159 164 169 178 191 198 194 176 170 177 192 192 198 207 200 194 191 190 185 175 177 188 159 174 173 173 155 130 88 65 71 65 53 46 53 54 44 37 34 32 30 30
168 173 180 184 188 194 199 202 202 209 213 212 201 203 215 197 192 193 190 181 176 156 149 145 134 145 151 151 115 87 73 50 33 62 58 55 54 47 41 38 36 33 30
179 179 180 189 193 192 192 201 215 221 223 231 230 219 222 205 203 193 190 191 184 167 147 159 156 145 155 150 126 115 83 66 22 61 59 54 53 50 47 43 42 42 39
185 180 178 185 186 188 197 207 212 219 220 226 226 224 223 203 208 200 196 194 186 179 147 143 151 137 131 141 126 105 84 34 14 65 50 39 38 47 51 53 57 56 53
183 186 189 195 202 204 204 208 212 222 227 230 225 222 219 210 210 200 198 191 175 171 153 141 147 150 145 140 143 154 158 144 80 59 41 36 27 31 36 57 80 74 67
192 190 198 215 221 213 207 204 209 218 225 228 223 217 216 216 216 204 194 186 176 176 166 162 156 152 167 171 190 168 153 137 152 140 80 18 24 18 16 20 74 90 83
195 190 201 213 225 229 239 233 216 216 221 221 224 221 216 219 223 214 207 194 184 182 185 179 170 180 193 187 157 157 140 148 200 190 156 178 49 63 321 331 3 107 103
188 193 198 202 225 252 270 276 271 234 222 218 212 205 213 209 208 207 213 206 199 201 196 187 187 192 186 185 169 165 168 164 183 165 145 168 208 217 257 292 303 192 133
188 190 192 196 215 258 278 302 308 246 221 213 198 191 205 217 197 199 200 198 198 207 206 200 203 201 188 174 174 173 156 123 90 133 149 162 190 217 234 257 280 227 180
175 166 175 185 202 258 289 296 260 207 226 220 197 184 180 176 183 187 187 195 200 211 209 203 201 184 173 167 158 139 146 149 164 187 185 158 171 188 216 236 256 248 199
163 156 158 174 204 241 271 261 178 167 186 170 169 178 175 166 164 146 150 180 205 204 173 175 171 171 169 173 171 170 168 168 155 184 186 165 157 159 194 242 228 247 228